This demonstration page uses our WeatherBlox Daily Observations layout. Learn more.

Left ArrowRight Arrow

53.62937, 11.41316

Hourly Observations for May 30, 2019

Temp ( °F °C ) Dew Point ( °F °C ) Humidity (%) Winds ( mph kmh ) Pressure ( in mb ) Visibility ( mi km ) Precip ( " mm )
6:50 am 06:50 Mostly Sunny 52 11 39 4 62 62 SSE 8 13 30.15 1021 7 11 N/A
7:20 am 07:20 Mostly Sunny 52 11 39 4 62 62 S 8 13 30.15 1021 7 11 N/A
7:50 am 07:50 Mostly Sunny 52 11 41 5 67 67 S 9 15 30.15 1021 7 11 N/A
8:20 am 08:20 Mostly Sunny 54 12 41 5 63 63 S 9 15 30.12 1020 7 11 N/A
8:50 am 08:50 Mostly Sunny 55 13 43 6 63 63 S 8 13 30.12 1020 7 11 N/A
9:20 am 09:20 Mostly Sunny 57 14 43 6 59 59 S 9 15 30.12 1020 7 11 N/A
9:50 am 09:50 Mostly Sunny 59 15 45 7 59 59 SSW 12 19 30.12 1020 7 11 N/A
10:20 am 10:20 Mostly Sunny 59 15 46 8 63 63 SSW 12 19 30.12 1020 7 11 N/A
10:50 am 10:50 Mostly Sunny 59 15 46 8 63 63 SSW 10 17 30.12 1020 7 11 N/A
11:20 am 11:20 Partly Cloudy with Light Rain 61 16 46 8 59 59 SSW 12 19 30.12 1020 30 48 N/A
11:50 am 11:50 Partly Cloudy with Light Rain 61 16 48 9 63 63 SSW 12 19 30.12 1020 30 48 N/A
12:20 pm 12:20 Mostly Cloudy 61 16 48 9 63 63 SW 17 28 30.12 1020 30 48 N/A
12:50 pm 12:50 Mostly Cloudy 61 16 50 10 68 68 SW 15 24 30.12 1020 30 48 N/A
1:20 pm 13:20 Mostly Cloudy 59 15 50 10 72 72 WSW 15 24 30.12 1020 30 48 N/A
1:50 pm 13:50 Mostly Cloudy 59 15 52 11 77 77 SSW 13 20 30.12 1020 30 48 N/A
2:20 pm 14:20 Mostly Cloudy 63 17 54 12 73 73 SSW 13 20 30.12 1020 30 48 N/A
2:50 pm 14:50 Mostly Cloudy 63 17 52 11 68 68 SW 14 22 30.12 1020 30 48 N/A
3:20 pm 15:20 Mostly Cloudy with Light Rain 63 17 52 11 68 68 SW 13 20 30.12 1020 30 48 N/A
3:50 pm 15:50 Mostly Cloudy 63 17 54 12 73 73 SW 13 20 30.12 1020 30 48 N/A
4:20 pm 16:20 Mostly Cloudy 63 17 55 13 77 77 WSW 13 20 30.12 1020 30 48 N/A
4:50 pm 16:50 Mostly Cloudy 63 17 55 13 77 77 SW 13 20 30.12 1020 30 48 N/A
5:20 pm 17:20 Mostly Cloudy 63 17 55 13 77 77 SW 12 19 30.12 1020 30 48 N/A
5:50 pm 17:50 Mostly Cloudy 63 17 50 10 64 64 SW 10 17 30.12 1020 30 48 N/A
6:20 pm 18:20 Mostly Cloudy 64 18 55 13 73 73 SW 12 19 30.12 1020 30 48 N/A
6:50 pm 18:50 Mostly Sunny 64 18 55 13 73 73 SW 12 19 30.12 1020 30 48 N/A
7:20 pm 19:20 Mostly Cloudy 64 18 55 13 73 73 SW 10 17 30.12 1020 30 48 N/A
7:50 pm 19:50 Mostly Cloudy 64 18 55 13 73 73 SW 9 15 30.12 1020 30 48 N/A
8:20 pm 20:20 Mostly Cloudy 63 17 55 13 77 77 SW 9 15 30.12 1020 30 48 N/A
8:50 pm 20:50 Mostly Cloudy 63 17 55 13 77 77 SW 9 15 30.12 1020 30 48 N/A

Powered by AerisWeather